[[{"header":{"parameterUnit":"m.s-1","parameterCategory":1,"la1":30.2992,"la2":30.254,"lo1":-89.0895,"lo2":-89.0443,"dy":0.0025,"dx":0.0025,"nx":19,"ny":19,"refTime":"2026-04-25T21:00:00:Z","depth":0,"parameterNumber":2,"parameterNumberName":"U-component_of_WINDS"},"data":[0,0,0,2.3338,2.3339,2.3388,2.3388,2.3463,2.3464,0,0,0,0,0,0,0,0,0,0,0,2.3333,2.3334,2.3338,2.334,2.3388,2.3388,2.3463,2.3464,0,0,0,0,0,0,0,0,0,0,0,2.3333,2.3334,2.3335,2.334,2.3388,2.3388,2.3463,2.3421,0,0,0,0,0,0,0,0,0,0,2.3372,2.3377,2.3334,2.3335,2.334,2.3388,2.3388,2.3419,2.3424,2.3448,0,2.3473,0,2.347,2.347,2.347,0,0,0,2.3332,2.3373,2.3378,2.3335,2.3341,2.3388,2.3364,2.3422,2.3427,2.3454,2.3474,2.3476,2.3471,2.3471,2.3471,2.3637,2.3638,0,0,2.3329,2.3347,2.3374,2.3382,2.3377,2.3362,2.3365,2.3425,2.3446,2.3474,2.3477,2.3472,2.3471,2.3472,2.3636,2.3637,0,0,0,2.3327,2.3345,2.3348,2.3379,2.3387,2.3364,2.3367,2.3444,2.3443,2.3478,2.3473,2.3472,2.3473,2.3635,2.3637,2.3709,0,0,0,2.3325,2.3344,2.3347,2.3359,2.3386,2.3416,2.3385,2.3439,2.3445,2.3473,2.3472,2.3474,2.3633,2.3636,2.3704,2.374,0,0,0,2.3327,2.3344,2.3354,2.3359,2.3381,2.3415,2.3418,2.344,2.3443,2.347,2.3474,2.3633,2.3635,2.37,2.3733,2.3788,0,0,0,2.3334,2.3418,2.3356,2.3448,2.3381,2.3461,2.3417,2.3475,2.3508,2.3472,2.3634,2.3636,2.3699,2.3729,2.3784,2.3837,2.3861,0,0,2.3449,2.3432,2.3485,2.3431,2.3526,2.3452,2.3557,2.357,2.3556,2.361,2.3614,2.3706,2.3732,2.3787,2.3993,2.4012,0,0,0,2.3527,2.3565,2.3587,2.3619,2.3633,2.3646,2.3641,2.3646,2.3692,2.3588,2.3741,2.3756,2.3788,2.3812,2.3828,2.3853,2.3649,2.3649,2.3648,2.3713,2.3693,2.3778,2.3764,2.3797,2.3792,2.3815,2.3821,2.3789,2.3826,2.3841,2.3969,2.3998,2.401,2.4037,2.3869,2.3869,2.387,2.387,2.3879,2.3929,2.3887,2.3955,2.3933,2.3989,2.3988,2.3964,2.4012,2.3955,2.3982,2.392,2.4032,2.4054,2.3875,2.3874,2.3873,2.3873,2.3873,2.3997,2.4017,2.4024,2.407,2.4107,2.409,2.4139,2.4116,2.4096,2.4122,2.4135,2.4134,2.4128,2.4131,2.4131,2.4131,2.4132,2.4132,2.4132,2.4116,2.4121,2.4166,2.4188,2.4207,2.4228,2.4226,2.4243,2.4256,2.4236,2.4236,2.42,2.4048,2.401,2.4139,2.4138,2.4137,2.4136,2.4136,2.4288,2.4246,2.4315,2.4334,2.4359,2.4398,2.437,2.4408,2.4419,2.4443,2.4403,2.4295,2.4275,2.4262,2.423,2.4408,2.4408,2.4408,2.4408,2.4386,2.4375,2.4441,2.4473,2.4501,2.4484,2.4562,2.4561,2.4553,2.4559,2.453,2.4486,2.4474,2.4461,2.4443,2.4413,2.4634,2.4634,2.4634,2.449,2.4481,2.4551,2.4545,2.4564,2.458,2.4652,2.4689,2.4671,2.4643,2.4562,2.4552,2.4481,2.4459,2.4426,2.44,2.4343,0,0]},{"header":{"parameterUnit":"m.s-1","parameterCategory":1,"la1":30.2992,"la2":30.254,"lo1":-89.0895,"lo2":-89.0443,"dy":0.0025,"dx":0.0025,"nx":19,"ny":19,"refTime":"2026-04-25T21:00:00:Z","depth":0,"parameterNumber":3,"parameterNumberName":"V-component_of_WINDS"},"data":[0,0,0,0.1537,0.1538,0.1603,0.1604,0.168,0.168,0,0,0,0,0,0,0,0,0,0,0,0.1513,0.1513,0.1536,0.1538,0.1603,0.1604,0.168,0.168,0,0,0,0,0,0,0,0,0,0,0,0.1513,0.1513,0.1514,0.1538,0.1603,0.1604,0.168,0.1633,0,0,0,0,0,0,0,0,0,0,0.1571,0.1545,0.1513,0.1514,0.1539,0.1603,0.1604,0.1631,0.1636,0.1647,0,0.1656,0,0.1669,0.1685,0.1685,0,0,0,0.1541,0.154,0.1562,0.1514,0.1539,0.1603,0.1575,0.1634,0.1639,0.1654,0.1657,0.166,0.1671,0.1685,0.1686,0.174,0.174,0,0,0.1538,0.1522,0.1558,0.1565,0.1555,0.1573,0.1577,0.1637,0.164,0.1657,0.1662,0.1672,0.1686,0.1686,0.174,0.174,0,0,0,0.1525,0.152,0.154,0.1562,0.1574,0.1574,0.1579,0.1637,0.1645,0.1663,0.1673,0.1686,0.1687,0.174,0.174,0.1729,0,0,0,0.1523,0.1512,0.1538,0.1529,0.1573,0.1607,0.1578,0.1641,0.1648,0.1672,0.1686,0.1688,0.174,0.174,0.173,0.1727,0,0,0,0.151,0.1511,0.1519,0.1528,0.1556,0.1606,0.1617,0.1643,0.1654,0.1685,0.1688,0.1739,0.174,0.173,0.1727,0.1737,0,0,0,0.1492,0.1509,0.1518,0.1541,0.1555,0.1599,0.1617,0.1651,0.1676,0.1687,0.174,0.174,0.173,0.1727,0.1737,0.1742,0.1742,0,0,0.1505,0.151,0.1525,0.1535,0.1573,0.159,0.1627,0.1665,0.1682,0.172,0.1721,0.1729,0.1727,0.1737,0.1751,0.1752,0,0,0,0.1524,0.1534,0.1548,0.1571,0.16,0.1625,0.1659,0.1673,0.1706,0.1698,0.1736,0.1735,0.1741,0.1744,0.1745,0.1751,0.1741,0.1741,0.174,0.152,0.1541,0.1567,0.1595,0.1617,0.1652,0.1672,0.1697,0.1712,0.172,0.1731,0.1738,0.1741,0.1741,0.1747,0.1736,0.1736,0.1736,0.1736,0.1541,0.1559,0.1577,0.1609,0.163,0.1657,0.1691,0.17,0.1728,0.1731,0.1738,0.1739,0.1741,0.1747,0.1735,0.1735,0.1735,0.1735,0.1735,0.1541,0.1553,0.157,0.1606,0.1631,0.1659,0.1685,0.1704,0.1722,0.1728,0.1742,0.1742,0.1744,0.1733,0.1733,0.1733,0.1733,0.1733,0.1733,0.1534,0.1554,0.1573,0.1605,0.1622,0.1647,0.1682,0.17,0.1724,0.1736,0.1736,0.1749,0.1737,0.1734,0.1734,0.1734,0.1734,0.1734,0.1734,0.1548,0.1548,0.1577,0.1595,0.1634,0.1657,0.1681,0.1715,0.1732,0.1744,0.1756,0.1744,0.1751,0.1751,0.1748,0.1752,0.1752,0.1752,0.1752,0.1548,0.1553,0.1587,0.1613,0.1641,0.1666,0.1698,0.1725,0.1753,0.1765,0.1767,0.1765,0.1764,0.1771,0.1771,0.1768,0.1777,0.1777,0.1777,0.1557,0.1565,0.159,0.1617,0.1648,0.1675,0.1706,0.1736,0.1767,0.1779,0.1775,0.1774,0.177,0.1768,0.178,0.1778,0.1775,0,0]}]]